TimeMDT,TemperatureF,Dew PointF,Humidity,Sea Level PressureIn,VisibilityMPH,Wind Direction,Wind SpeedMPH,Gust SpeedMPH,PrecipitationIn,Events,Conditions,WindDirDegrees,DateUTC
12:53 AM,28.0,21.0,75,30.17,10.0,Calm,Calm,-,N/A,,Clear,0,2013-10-25 06:53:00
1:53 AM,30.0,21.9,72,30.16,10.0,Calm,Calm,-,N/A,,Clear,0,2013-10-25 07:53:00
2:53 AM,25.0,19.9,81,30.18,10.0,Calm,Calm,-,N/A,,Clear,0,2013-10-25 08:53:00
3:53 AM,25.0,21.0,85,30.18,10.0,NW,3.5,-,N/A,,Clear,320,2013-10-25 09:53:00
4:53 AM,25.0,21.0,85,30.18,10.0,Calm,Calm,-,N/A,,Clear,0,2013-10-25 10:53:00
5:53 AM,24.1,19.9,84,30.22,10.0,Calm,Calm,-,N/A,,Clear,0,2013-10-25 11:53:00
6:53 AM,27.0,21.0,78,30.25,10.0,Calm,Calm,-,N/A,,Clear,0,2013-10-25 12:53:00
7:53 AM,26.1,21.0,81,30.28,10.0,Calm,Calm,-,N/A,,Clear,0,2013-10-25 13:53:00
8:53 AM,34.0,25.0,70,30.27,10.0,Calm,Calm,-,N/A,,Clear,0,2013-10-25 14:53:00
9:53 AM,43.0,27.0,53,30.25,10.0,Calm,Calm,-,N/A,,Clear,0,2013-10-25 15:53:00
10:53 AM,52.0,28.0,40,30.19,10.0,South,3.5,-,N/A,,Clear,170,2013-10-25 16:53:00
11:53 AM,57.9,24.1,27,30.17,10.0,West,9.2,-,N/A,,Clear,260,2013-10-25 17:53:00
12:53 PM,59.0,23.0,25,30.16,10.0,West,13.8,18.4,N/A,,Clear,260,2013-10-25 18:53:00
1:53 PM,61.0,23.0,23,30.13,10.0,West,13.8,20.7,N/A,,Clear,280,2013-10-25 19:53:00
2:53 PM,61.0,19.0,20,30.14,10.0,NW,10.4,18.4,N/A,,Clear,320,2013-10-25 20:53:00
3:53 PM,60.1,17.1,19,30.14,10.0,WNW,8.1,-,N/A,,Clear,300,2013-10-25 21:53:00
4:53 PM,61.0,17.1,18,30.15,10.0,NW,4.6,-,N/A,,Clear,320,2013-10-25 22:53:00
5:53 PM,55.9,21.0,26,30.18,10.0,NNW,3.5,-,N/A,,Clear,340,2013-10-25 23:53:00
6:53 PM,42.1,21.9,45,30.25,10.0,NNW,9.2,-,N/A,,Clear,330,2013-10-26 00:53:00
7:53 PM,39.9,21.9,49,30.29,10.0,NNW,8.1,-,N/A,,Clear,340,2013-10-26 01:53:00
8:53 PM,39.0,21.9,50,30.27,10.0,NW,8.1,-,N/A,,Clear,320,2013-10-26 02:53:00
9:53 PM,35.1,23.0,61,30.27,10.0,NW,9.2,-,N/A,,Clear,320,2013-10-26 03:53:00
10:53 PM,35.1,25.0,67,30.23,10.0,NNW,8.1,-,N/A,,Clear,330,2013-10-26 04:53:00
11:53 PM,34.0,25.0,70,30.23,10.0,NW,6.9,-,N/A,,Clear,320,2013-10-26 05:53:00